Wind_Speed
50 50 50 51 50 50 50 50 50 49 48 48 48 47 47 46 45 45 44 43 42 41 39 38 37 35 33 32 31 30 29 28 27 26 25 24 24 24
51 51 51 51 51 51 51 51 51 50 49 48 47 47 47 46 46 45 44 43 41 40 38 37 36 34 32 31 30 29 28 27 26 26 25 24 24 23
51 51 52 52 52 51 51 51 50 50 49 48 47 47 47 46 45 44 43 41 40 39 37 36 35 33 31 30 28 28 27 27 26 25 25 24 24 23
51 51 51 51 51 51 50 50 49 49 48 47 46 46 46 45 43 42 41 39 38 36 35 34 33 31 29 28 28 27 26 26 26 25 25 24 24 24
51 51 50 50 50 49 49 48 48 47 46 45 44 44 43 42 41 40 38 37 36 34 33 32 30 29 28 28 27 26 26 26 25 25 25 24 24 24
48 48 48 48 48 48 47 46 46 45 44 44 42 42 41 40 39 38 37 36 34 33 32 30 29 29 28 27 27 26 26 26 25 25 25 24 24 24
47 47 48 48 47 46 46 45 45 44 43 42 41 40 39 38 37 37 35 34 33 32 30 29 28 28 27 27 27 26 26 26 25 25 24 24 24 25
46 46 45 45 45 45 44 44 43 42 41 40 39 38 37 36 35 35 33 32 31 30 29 28 27 27 27 27 26 26 26 25 25 25 25 25 26 26
44 44 44 43 43 42 42 41 41 40 39 38 37 36 35 34 33 33 32 31 30 29 28 28 27 27 27 27 26 26 25 25 25 25 25 26 27 28
44 44 43 42 41 41 40 39 38 37 36 35 34 34 33 32 32 31 30 30 29 29 28 28 27 27 26 26 26 26 26 26 26 26 27 27 28 29
44 43 42 41 40 39 37 36 35 34 34 33 32 32 31 30 30 30 29 29 28 28 27 27 26 26 26 26 26 26 26 27 27 28 28 29 29 30
43 42 41 40 38 37 36 34 33 32 32 31 30 30 29 29 29 29 28 28 28 27 27 26 26 26 26 27 27 27 27 28 28 29 30 30 31 32
41 40 38 37 35 34 34 32 31 31 30 29 29 29 28 28 28 28 28 27 27 27 27 27 27 27 27 28 28 28 29 29 30 31 31 32 32 33
39 37 36 34 34 33 32 32 31 30 29 29 28 28 27 27 28 27 27 27 27 27 28 28 28 29 29 29 30 30 31 31 32 32 33 34 34 35
37 36 35 33 33 32 32 31 30 30 29 29 28 27 27 27 27 27 28 28 28 28 29 29 29 30 30 31 31 32 32 33 33 33 34 35 36 37
36 34 34 33 32 31 31 30 30 29 29 28 28 28 27 28 28 28 29 29 29 29 30 30 31 31 32 32 33 34 34 34 35 35 36 37 38 38
35 34 33 33 32 32 31 30 30 29 30 29 29 29 29 30 30 30 30 31 31 31 31 32 33 33 34 34 35 35 36 36 36 37 37 39 39 40
34 33 33 33 32 32 31 31 30 30 30 30 30 30 31 31 31 31 32 32 33 33 33 34 34 35 35 36 37 37 38 38 38 38 38 39 40 40
33 33 33 33 32 32 32 32 31 31 31 31 32 32 32 33 33 33 34 34 34 35 35 35 36 36 37 38 38 39 39 39 39 38 38 39 39 40
33 33 33 33 33 33 33 32 32 32 32 32 32 33 33 34 34 35 35 35 35 36 36 37 37 37 37 37 38 39 39 39 38 38 38 39 39 40
33 33 33 33 33 33 32 32 32 32 32 32 32 33 34 34 35 36 37 37 37 37 37 37 37 37 37 37 37 38 39 38 38 38 38 38 39 40
33 33 34 34 33 33 33 33 33 33 33 33 34 34 35 36 36 37 37 37 37 37 37 38 38 37 37 37 38 38 39 39 39 39 39 39 40 40
34 34 34 34 34 34 34 34 35 35 35 35 35 36 37 37 37 37 37 37 37 37 38 38 38 38 38 38 38 39 39 40 40 40 41 41 41 41
Wind_Direction
283 284 284 285 285 286 286 286 286 287 288 287 287 286 286 286 286 286 286 287 286 286 285 285 284 284 283 280 279 278 276 274 272 271 269 268 266 265
283 283 284 285 286 286 287 287 287 287 287 287 286 285 285 285 286 286 286 285 284 284 284 283 283 282 280 278 277 276 274 271 270 268 266 266 265 265
283 284 285 285 286 287 287 287 287 287 287 287 286 285 285 285 285 285 285 284 283 284 282 281 281 280 278 276 276 274 272 270 268 266 265 265 264 263
283 284 285 285 286 287 287 287 287 287 287 287 286 286 285 285 285 284 284 284 283 282 280 279 279 277 275 274 274 272 270 269 268 266 265 264 263 263
284 285 285 286 287 287 286 286 286 286 286 286 286 286 286 285 285 284 283 283 282 280 278 277 276 274 273 273 272 271 269 268 267 266 264 263 262 262
284 285 285 285 286 286 286 286 286 286 286 286 286 286 285 285 284 283 282 281 280 278 277 275 274 272 272 272 271 270 269 268 267 266 264 263 262 262
284 285 284 284 285 285 285 285 285 285 285 285 285 285 284 284 283 282 281 279 278 277 275 273 273 272 271 271 271 269 269 268 266 265 264 264 263 263
284 284 284 284 285 285 285 285 285 284 284 284 284 284 283 283 282 280 278 277 276 274 273 272 271 271 271 271 270 269 268 267 266 265 265 264 264 265
284 284 285 285 285 285 285 285 284 284 283 283 284 283 283 281 280 278 276 275 274 272 271 270 270 270 270 270 270 269 268 266 266 266 266 266 266 266
283 284 284 285 285 285 285 285 284 283 283 283 283 283 282 280 279 278 275 273 272 270 270 270 270 270 270 270 269 268 267 267 267 268 268 268 268 269
282 282 283 283 283 283 283 283 283 282 282 282 282 281 280 279 278 276 274 273 272 271 270 270 270 271 271 270 269 268 269 269 269 269 269 269 270 270
281 281 281 282 282 281 281 282 282 282 282 281 281 280 279 278 277 275 274 273 272 271 271 271 271 272 272 271 270 270 270 271 270 270 270 270 271 271
280 280 280 280 279 280 280 280 281 281 281 281 280 279 278 277 276 274 274 273 272 271 271 271 272 272 272 272 271 271 272 272 272 272 272 272 272 273
277 277 277 278 278 277 278 278 279 280 279 279 278 277 277 276 275 274 274 273 273 273 273 272 273 274 274 274 273 273 273 274 274 274 273 273 274 275
275 275 275 275 276 276 276 276 276 277 276 276 276 276 276 275 275 275 274 273 274 274 274 274 275 276 276 276 276 275 275 275 275 275 275 275 276 276
273 273 272 273 274 274 275 275 275 275 275 275 275 275 275 274 274 275 274 275 275 275 275 275 276 277 277 277 277 277 277 276 277 277 277 277 277 277
270 270 270 271 272 272 272 273 273 272 273 273 274 274 274 275 275 275 275 276 276 275 275 276 277 277 278 278 278 278 278 278 278 279 279 279 279 278
267 268 269 269 269 269 270 272 272 272 273 273 273 274 275 276 276 275 276 276 276 276 277 278 278 279 279 279 279 279 279 279 280 280 279 280 280 280
265 266 267 268 268 268 269 270 271 272 273 273 274 274 275 276 275 276 276 277 277 277 278 279 280 280 280 280 281 280 280 280 280 280 280 280 281 281
264 265 266 267 267 268 269 269 270 271 272 273 274 275 276 276 277 277 277 277 277 278 279 280 281 282 282 282 281 280 280 281 281 281 281 281 281 281
262 263 265 266 267 268 268 269 270 272 273 274 275 276 277 278 278 278 278 278 278 279 279 280 282 282 283 282 282 281 281 282 282 282 282 282 282 282
261 262 263 265 266 267 267 269 270 271 273 274 275 276 277 278 279 279 279 279 279 279 279 280 281 282 282 282 283 282 283 283 283 282 282 282 283 283
260 261 262 264 265 266 268 269 271 272 274 274 275 277 278 279 279 279 279 279 279 280 280 281 281 282 282 283 283 283 283 283 284 284 283 283 284 284
Height
5736 5735 5733 5732 5730 5728 5726 5725 5724 5723 5722 5719 5716 5713 5711 5709 5707 5705 5704 5702 5700 5699 5697 5696 5695 5694 5693 5692 5691 5691 5691 5691 5691 5691 5692 5693 5693 5694
5724 5723 5722 5720 5718 5716 5714 5712 5710 5709 5709 5707 5704 5702 5699 5697 5695 5694 5692 5690 5689 5687 5686 5685 5685 5684 5683 5683 5682 5683 5683 5683 5683 5684 5684 5685 5686 5686
5712 5711 5710 5708 5706 5704 5702 5700 5698 5696 5695 5694 5692 5689 5687 5685 5683 5682 5680 5679 5678 5677 5676 5675 5674 5674 5674 5673 5673 5674 5674 5674 5675 5676 5676 5677 5678 5679
5700 5699 5697 5695 5694 5692 5690 5688 5686 5684 5682 5681 5679 5677 5676 5674 5672 5671 5669 5668 5667 5666 5665 5665 5665 5664 5665 5665 5665 5665 5666 5666 5667 5668 5669 5670 5671 5672
5688 5687 5685 5683 5681 5680 5678 5676 5674 5672 5670 5669 5667 5666 5664 5662 5661 5660 5659 5658 5657 5656 5656 5655 5655 5655 5656 5656 5656 5657 5658 5658 5659 5660 5661 5662 5663 5664
5676 5674 5673 5671 5670 5668 5666 5664 5662 5660 5659 5657 5656 5654 5653 5651 5650 5649 5648 5648 5647 5647 5646 5646 5646 5647 5647 5648 5648 5649 5649 5650 5651 5652 5653 5654 5655 5656
5664 5663 5661 5660 5658 5656 5654 5653 5651 5649 5647 5646 5645 5643 5642 5641 5640 5639 5639 5638 5637 5637 5638 5638 5638 5638 5639 5639 5640 5640 5641 5642 5643 5643 5644 5646 5647 5648
5653 5651 5650 5648 5646 5645 5643 5641 5639 5638 5636 5635 5634 5633 5632 5631 5630 5629 5629 5629 5629 5629 5629 5629 5629 5630 5630 5631 5631 5632 5633 5633 5634 5635 5636 5637 5638 5639
5642 5640 5638 5637 5635 5633 5631 5630 5628 5627 5626 5625 5624 5623 5622 5621 5621 5620 5620 5620 5620 5620 5620 5621 5621 5622 5622 5623 5623 5624 5624 5625 5626 5627 5628 5629 5629 5630
5630 5629 5627 5626 5624 5623 5621 5619 5618 5617 5616 5615 5614 5613 5612 5612 5611 5611 5611 5611 5611 5612 5612 5613 5613 5613 5614 5614 5615 5615 5616 5617 5617 5618 5619 5619 5620 5621
5619 5617 5616 5615 5613 5612 5611 5609 5608 5607 5606 5605 5604 5604 5603 5603 5602 5603 5603 5603 5603 5604 5604 5604 5605 5605 5606 5606 5606 5607 5607 5608 5608 5609 5609 5610 5610 5611
5607 5606 5605 5604 5603 5602 5601 5600 5599 5598 5597 5596 5595 5595 5594 5594 5594 5594 5595 5595 5595 5596 5596 5596 5597 5597 5597 5598 5598 5598 5598 5599 5599 5599 5599 5600 5600 5600
5596 5595 5594 5593 5593 5592 5591 5590 5590 5589 5588 5587 5587 5587 5586 5586 5586 5586 5587 5587 5587 5588 5588 5588 5588 5588 5589 5589 5589 5589 5589 5589 5589 5589 5589 5589 5589 5589
5585 5584 5584 5583 5583 5582 5582 5581 5581 5580 5579 5579 5579 5579 5578 5578 5578 5578 5579 5579 5579 5579 5579 5580 5580 5580 5580 5580 5580 5580 5579 5579 5579 5579 5578 5578 5578 5578
5574 5574 5574 5573 5573 5573 5572 5572 5572 5571 5571 5571 5571 5571 5570 5570 5571 5571 5571 5571 5571 5571 5571 5571 5571 5570 5570 5570 5570 5569 5569 5569 5568 5568 5567 5567 5566 5566
5564 5563 5563 5563 5563 5563 5563 5563 5563 5563 5562 5562 5562 5562 5562 5562 5562 5562 5562 5562 5562 5562 5561 5561 5561 5561 5560 5560 5559 5559 5558 5558 5557 5557 5556 5555 5554 5553
5553 5553 5553 5554 5554 5554 5554 5554 5554 5554 5554 5554 5554 5554 5554 5554 5553 5553 5553 5553 5553 5552 5552 5552 5551 5550 5549 5549 5548 5547 5547 5546 5546 5545 5544 5542 5541 5540
5543 5543 5543 5543 5544 5544 5544 5545 5545 5545 5545 5545 5545 5544 5544 5544 5544 5544 5543 5543 5542 5542 5541 5541 5540 5540 5539 5537 5537 5536 5535 5534 5533 5532 5531 5529 5528 5527
5532 5533 5533 5533 5534 5534 5535 5535 5535 5535 5535 5535 5535 5535 5535 5534 5534 5534 5533 5532 5532 5531 5530 5530 5529 5528 5527 5526 5524 5523 5522 5521 5520 5519 5518 5517 5515 5513
5521 5522 5522 5523 5524 5524 5524 5525 5525 5525 5525 5525 5525 5525 5524 5524 5523 5523 5522 5521 5520 5520 5519 5518 5517 5516 5515 5513 5512 5510 5509 5508 5507 5506 5505 5503 5502 5499
5510 5511 5512 5512 5513 5513 5514 5514 5514 5515 5515 5515 5514 5514 5513 5513 5512 5511 5510 5509 5509 5508 5507 5506 5505 5504 5502 5501 5499 5497 5496 5495 5494 5493 5492 5490 5489 5486
5499 5500 5501 5501 5502 5503 5503 5504 5504 5504 5504 5504 5503 5503 5502 5501 5500 5499 5498 5497 5496 5495 5494 5493 5492 5491 5490 5489 5487 5485 5483 5482 5481 5480 5478 5477 5475 5473
5488 5489 5489 5490 5491 5492 5492 5492 5493 5493 5492 5492 5492 5491 5490 5489 5488 5487 5486 5485 5484 5483 5482 5481 5480 5479 5477 5476 5474 5472 5470 5469 5467 5466 5464 5462 5462 5460